FW3157 Weather Reports


time (UTC)temp
F
wind
direction
speed
knots
gust
knots
rain 1hr
in
rain 24hr
in
rain mn
in
humidity
%
barometer
mb
20260510065337 67 281 3.5 7.0 0.00 0.00 0.00 75 1016.1
20260510064821 67 289 2.6 7.0 0.00 0.00 0.00 76 1016.0
20260510064547 66 276 3.5 7.0 0.00 0.00 0.00 78 1015.9
20260510063809 66 277 2.6 5.2 0.00 0.00 0.00 78 1016.0
20260510063304 66 240 2.6 5.2 0.00 0.00 0.00 78 1016.0
20260510062758 65 298 3.5 5.2 0.00 0.00 0.00 80 1016.1
20260510062514 65 272 3.5 7.0 0.00 0.00 0.00 80 1016.1
20260510061746 65 285 3.5 7.0 0.00 0.00 0.00 80 1016.0
20260510061240 65 285 3.5 7.0 0.00 0.00 0.00 80 1016.1
20260510060734 64 268 3.5 7.0 0.00 0.00 0.00 81 1016.0
20260510060228 64 281 3.5 7.0 0.00 0.00 0.00 82 1015.9
20260510055721 64 275 3.5 7.0 0.00 0.00 0.00 81 1016.0
20260510055216 63 267 3.5 7.0 0.00 0.00 0.00 82 1016.0
20260510054711 63 264 2.6 6.1 0.00 0.00 0.00 84 1016.1
20260510054210 63 294 1.7 4.3 0.00 0.00 0.00 85 1016.1
20260510053710 63 274 1.7 4.3 0.00 0.00 0.00 87 1016.0
20260510053210 62 265 2.6 5.2 0.00 0.00 0.00 86 1015.9
20260510052710 62 264 1.7 5.2 0.00 0.00 0.00 87 1015.9
20260510052210 62 274 1.7 2.6 0.00 0.00 0.00 88 1015.8
20260510051708 62 274 1.7 3.5 0.00 0.00 0.00 88 1015.7
20260510051206 62 269 1.7 3.5 0.00 0.01 0.00 89 1015.7
20260510050705 62 269 1.7 3.5 0.00 0.01 0.00 89 1015.7
20260510050206 62 276 1.7 3.5 0.00 0.01 0.00 89 1015.8
20260510045929 62 306 1.7 3.5 0.00 0.01 0.00 89 1015.8
20260510045202 62 306 1.7 3.5 0.00 0.01 0.00 89 1015.7
20260510044702 62 299 0.9 3.5 0.00 0.01 0.00 91 1015.7
20260510044202 61 309 1.7 4.3 0.00 0.01 0.00 91 1015.8
20260510043659 61 321 2.6 4.3 0.00 0.01 0.00 91 1015.8
20260510043200 62 311 2.6 4.3 0.00 0.01 0.00 90 1015.8
20260510042917 62 316 1.7 4.3 0.00 0.01 0.00 90 1015.8
20260510042159 62 270 2.6 5.2 0.00 0.01 0.00 91 1015.8
20260510041700 62 274 2.6 5.2 0.00 0.01 0.00 90 1015.8
20260510041200 62 274 1.7 6.1 0.00 0.01 0.00 90 1015.8
20260510040658 62 275 1.7 6.1 0.00 0.01 0.00 90 1015.8
20260510040421 62 307 2.6 4.3 0.00 0.01 0.00 91 1015.7
20260510035656 62 300 2.6 4.3 0.00 0.01 0.00 91 1015.6
20260510035421 62 249 1.7 3.5 0.00 0.01 0.00 91 1015.5
20260510034655 62 269 1.7 3.5 0.00 0.01 0.00 91 1015.4
20260510034156 62 260 1.7 3.5 0.00 0.01 0.00 91 1015.3
20260510033656 62 250 1.7 3.5 0.00 0.01 0.00 91 1015.4
20260510033156 62 255 2.6 3.5 0.00 0.01 0.00 90 1015.2
20260510032654 62 255 2.6 4.3 0.00 0.01 0.00 90 1015.2
20260510032154 62 243 1.7 4.3 0.00 0.01 0.00 89 1015.2
20260510031654 62 256 1.7 2.6 0.00 0.01 0.00 89 1015.3
20260510031154 62 256 0.9 2.6 0.00 0.01 0.00 89 1015.2
20260510030654 62 256 0.9 1.7 0.00 0.01 0.00 90 1015.2
20260510030153 62 256 0.9 2.6 0.00 0.01 0.00 90 1015.2
20260510025651 62 256 0.9 2.6 0.00 0.01 0.00 91 1015.2
20260510025152 61 256 0.0 1.7 0.00 0.01 0.00 92 1015.2
20260510024652 61 256 0.0 0.9 0.00 0.01 0.00 92 1015.1
20260510024149 61 256 0.0 0.9 0.00 0.01 0.00 92 1015.1
20260510023649 61 256 0.0 0.9 0.00 0.01 0.00 93 1015.0
20260510023149 61 256 0.0 0.9 0.00 0.01 0.00 92 1015.0
20260510022650 62 256 0.0 0.9 0.00 0.01 0.00 92 1015.1
20260510022150 62 256 0.0 0.9 0.00 0.01 0.00 93 1015.1
20260510021650 62 256 0.0 0.9 0.00 0.01 0.00 93 1015.1
20260510021149 62 256 0.0 1.7 0.00 0.01 0.00 93 1015.0
20260510020650 62 256 0.9 2.6 0.00 0.01 0.00 92 1015.0
20260510020412 62 256 1.7 3.5 0.00 0.01 0.00 92 1015.1
20260510015903 62 256 2.6 4.3 0.00 0.01 0.00 92 1015.2
20260510015146 62 260 2.6 4.3 0.00 0.01 0.00 92 1015.1
20260510014908 62 258 1.7 4.3 0.00 0.01 0.00 91 1015.1
20260510014145 62 117 0.9 1.7 0.00 0.01 0.00 91 1015.1
20260510013908 62 117 0.0 1.7 0.00 0.01 0.00 91 1015.0
20260510013411 61 117 0.0 0.9 0.00 0.01 0.00 91 1015.1
20260510012646 61 117 0.0 0.0 0.00 0.01 0.00 90 1015.1
20260510012145 62 117 0.0 0.9 0.00 0.01 0.00 90 1015.1
20260510011638 62 117 0.0 0.9 0.00 0.01 0.00 90 1015.2
20260510011133 62 117 0.0 0.9 0.00 0.01 0.00 91 1015.2
20260510010627 61 117 0.0 0.0 0.00 0.01 0.00 91 1015.3
20260510010121 61 117 0.0 0.0 0.00 0.01 0.00 91 1015.3
20260510005621 61 117 0.0 0.0 0.00 0.01 0.00 90 1015.3
20260510005331 61 117 0.0 0.0 0.00 0.01 0.00 90 1015.3
20260510004603 61 117 0.0 0.9 0.00 0.01 0.00 90 1015.4
20260510004057 61 117 0.0 0.9 0.00 0.01 0.00 90 1015.4
20260510003550 61 117 0.0 0.9 0.00 0.01 0.00 90 1015.4
20260510003045 61 117 0.0 0.9 0.00 0.01 0.00 90 1015.4
20260510002539 61 117 0.0 0.9 0.00 0.01 0.00 90 1015.4
20260510002033 61 117 0.0 0.9 0.00 0.01 0.00 89 1015.4
20260510001527 61 117 0.0 0.9 0.00 0.01 0.00 90 1015.3
20260510001021 62 117 0.0 0.9 0.00 0.01 0.00 90 1015.4
20260510000738 62 117 0.0 0.9 0.00 0.01 0.00 90 1015.3
20260510000009 62 117 0.0 0.9 0.00 0.01 0.00 90 1015.4
20260509235726 62 117 0.0 0.9 0.00 0.01 0.00 90 1015.3
20260509234957 62 117 0.0 0.9 0.00 0.01 0.00 90 1015.3
20260509234451 62 117 0.0 0.9 0.00 0.01 0.00 90 1015.3
20260509233945 62 117 0.0 0.9 0.00 0.01 0.00 90 1015.4
20260509233439 62 117 0.0 0.9 0.00 0.01 0.00 90 1015.4
20260509232933 62 117 0.0 0.9 0.00 0.01 0.00 90 1015.4
20260509232427 62 117 0.0 0.9 0.00 0.01 0.00 90 1015.5
20260509231921 63 117 0.0 0.9 0.00 0.01 0.00 90 1015.6
20260509231415 63 117 0.0 0.9 0.00 0.01 0.00 90 1015.6
20260509230909 63 117 0.0 0.9 0.00 0.01 0.00 90 1015.7
20260509230403 63 117 0.0 0.9 0.00 0.01 0.00 90 1015.7
20260509225858 64 117 0.9 1.7 0.00 0.01 0.00 90 1015.7
20260509225351 64 117 0.9 1.7 0.00 0.01 0.00 90 1015.7
20260509224846 64 138 0.9 0.9 0.00 0.01 0.00 90 1015.7
20260509224339 64 137 0.0 0.9 0.00 0.01 0.00 90 1015.7
20260509223833 64 137 0.0 0.9 0.00 0.01 0.00 90 1015.7
20260509223326 64 137 0.0 0.9 0.00 0.01 0.00 90 1015.8
20260509222821 64 137 0.0 0.9 0.00 0.01 0.00 90 1015.8
20260509222321 64 137 0.0 0.9 0.00 0.01 0.00 90 1015.8
20260509221821 64 138 0.0 0.9 0.00 0.01 0.00 91 1015.7
20260509221321 63 138 0.0 0.9 0.00 0.01 0.00 90 1015.7
20260509220821 63 138 0.0 0.9 0.00 0.01 0.00 91 1015.7
20260509220544 63 138 0.9 0.9 0.00 0.01 0.00 91 1015.8
20260509215820 63 137 0.0 0.9 0.00 0.01 0.00 91 1015.7
20260509215319 63 137 0.0 0.9 0.00 0.01 0.00 91 1015.8
20260509214824 63 137 0.0 0.9 0.00 0.01 0.00 91 1015.9
20260509214540 63 137 0.0 0.9 0.00 0.01 0.00 90 1015.9
20260509213819 63 138 0.0 0.9 0.00 0.01 0.00 91 1015.9
20260509213317 63 137 0.0 0.9 0.00 0.01 0.00 91 1016.0
20260509212816 63 138 0.0 0.9 0.00 0.01 0.00 91 1015.9
20260509212313 63 137 0.0 0.9 0.00 0.01 0.00 91 1016.0
20260509211814 64 137 0.0 0.9 0.00 0.01 0.00 91 1015.9
20260509211536 64 137 0.0 0.9 0.00 0.01 0.00 91 1015.9
20260509210813 64 138 0.0 0.9 0.00 0.01 0.00 91 1015.9
20260509210313 64 137 0.0 1.7 0.00 0.01 0.00 91 1015.9
20260509205813 64 138 0.0 1.7 0.00 0.01 0.01 91 1015.9
20260509205307 64 138 0.0 1.7 0.00 0.01 0.01 91 1015.8
20260509204802 64 149 0.0 1.7 0.00 0.01 0.01 91 1015.7
20260509204254 64 207 0.0 1.7 0.00 0.01 0.01 91 1015.6
20260509203749 64 207 0.9 2.6 0.00 0.01 0.01 91 1015.7
20260509203243 64 259 0.9 2.6 0.00 0.01 0.01 91 1015.7
20260509202737 65 208 0.0 1.7 0.00 0.01 0.01 91 1015.6
20260509202231 65 208 0.9 2.6 0.00 0.01 0.01 91 1015.6
20260509201725 65 208 0.9 2.6 0.00 0.01 0.01 90 1015.6
20260509201218 65 205 0.9 3.5 0.00 0.01 0.01 90 1015.6
20260509200712 65 207 0.9 3.5 0.00 0.01 0.01 90 1015.6
20260509200207 64 224 0.0 0.9 0.00 0.01 0.01 90 1015.5
20260509195700 64 224 0.0 0.0 0.00 0.01 0.01 89 1015.4
20260509195155 65 224 0.0 0.0 0.00 0.01 0.01 89 1015.4
20260509194649 65 224 0.0 0.0 0.00 0.01 0.01 88 1015.3
20260509194413 65 224 0.0 0.0 0.00 0.01 0.01 88 1015.4
20260509193637 65 224 0.0 0.9 0.00 0.01 0.01 88 1015.4
20260509193131 65 224 0.0 0.9 0.00 0.01 0.01 88 1015.5
20260509192625 65 224 0.0 0.9 0.00 0.01 0.01 88 1015.4
20260509192119 65 224 0.0 0.9 0.00 0.01 0.01 88 1015.4
20260509191613 65 224 0.0 0.9 0.00 0.01 0.01 88 1015.3
20260509191107 65 224 0.0 0.9 0.00 0.01 0.01 88 1015.4
20260509190601 65 224 0.0 0.9 0.00 0.01 0.01 89 1015.3
20260509190322 65 224 0.0 0.9 0.00 0.01 0.01 88 1015.3
20260509185552 65 224 0.0 0.9 0.00 0.01 0.01 88 1015.3
20260509185043 65 224 0.0 0.9 0.00 0.01 0.01 87 1015.3
20260509184536 66 224 0.0 2.6 0.00 0.01 0.01 87 1015.2
20260509184031 66 224 0.0 2.6 0.00 0.01 0.01 87 1015.2
20260509183525 66 213 0.9 2.6 0.00 0.01 0.01 86 1015.2
20260509183506 66 213 0.9 2.6 0.00 0.01 0.01 85 1015.1
20260509182512 66 219 0.0 2.6 0.00 0.01 0.01 83 1015.1
20260509182007 66 208 0.0 1.7 0.00 0.01 0.01 81 1015.0
20260509181503 67 208 0.0 2.6 0.00 0.01 0.01 81 1014.9
20260509181441 67 208 0.0 2.6 0.00 0.01 0.01 80 1014.7
20260509180449 67 246 0.0 1.7 0.00 0.01 0.01 80 1014.7
20260509175942 67 245 0.0 0.9 0.00 0.01 0.01 79 1014.7
20260509175437 67 246 0.0 1.7 0.00 0.01 0.01 79 1014.5
20260509174930 67 245 0.9 2.6 0.00 0.01 0.01 79 1014.4
20260509174425 67 245 0.9 2.6 0.00 0.01 0.01 80 1014.3
20260509174144 67 98 0.0 0.9 0.00 0.01 0.01 80 1014.3
20260509173413 68 98 0.0 0.9 0.00 0.01 0.01 80 1014.2
20260509172906 68 98 0.0 0.9 0.00 0.01 0.01 80 1014.1
20260509172401 68 98 0.0 0.9 0.00 0.01 0.01 80 1014.1
20260509171855 68 98 0.0 0.9 0.00 0.01 0.01 80 1014.2
20260509171607 68 98 0.0 1.7 0.00 0.01 0.01 80 1014.1
20260509170843 68 98 0.0 1.7 0.00 0.01 0.01 80 1014.1
20260509170555 68 98 0.0 1.7 0.00 0.01 0.01 80 1014.1
20260509165831 68 98 0.9 2.6 0.00 0.01 0.01 79 1014.2
20260509165331 68 145 0.0 2.6 0.00 0.01 0.01 80 1014.2
20260509165053 68 147 0.9 2.6 0.00 0.01 0.01 80 1014.2
20260509164331 68 148 0.9 3.5 0.00 0.01 0.01 81 1014.1
20260509164049 68 184 0.9 3.5 0.00 0.01 0.01 81 1014.1
20260509163327 68 254 0.9 3.5 0.00 0.01 0.01 82 1014.1
20260509162827 68 162 0.9 3.5 0.00 0.01 0.01 82 1014.1
20260509162551 68 207 0.9 2.6 0.00 0.01 0.01 82 1014.1
20260509161825 68 234 0.9 2.6 0.00 0.01 0.01 83 1014.0
20260509161325 68 214 0.9 2.6 0.00 0.01 0.01 83 1014.1
20260509160824 68 144 0.9 2.6 0.00 0.01 0.01 83 1014.0
20260509160324 68 203 0.9 2.6 0.00 0.01 0.01 84 1014.1
20260509160044 68 211 0.9 3.5 0.00 0.01 0.01 84 1014.2
20260509155808 68 208 0.9 4.3 0.00 0.01 0.01 84 1014.1
20260509154823 68 191 0.9 4.3 0.00 0.01 0.01 84 1014.1
20260509154321 68 205 1.7 6.1 0.00 0.01 0.01 84 1014.1
20260509153821 68 222 1.7 6.1 0.00 0.01 0.01 84 1014.1
20260509153319 68 210 1.7 6.1 0.00 0.01 0.01 84 1014.0
20260509152819 68 214 2.6 7.8 0.00 0.01 0.01 84 1014.0
20260509152312 68 227 2.6 7.8 0.00 0.01 0.01 84 1014.0
20260509151807 68 238 2.6 7.0 0.00 0.01 0.01 84 1014.0
20260509151523 68 268 2.6 7.0 0.00 0.01 0.01 84 1013.9
20260509150805 68 207 1.7 7.0 0.00 0.01 0.01 83 1013.9
20260509150305 69 187 2.6 6.1 0.00 0.01 0.01 83 1013.9
20260509145805 69 219 2.6 6.1 0.00 0.01 0.01 83 1013.8
20260509145306 69 258 1.7 6.1 0.00 0.01 0.01 84 1013.8
20260509144804 69 213 2.6 8.7 0.00 0.01 0.01 83 1013.8
20260509144305 68 247 3.5 8.7 0.00 0.01 0.01 84 1013.8
20260509143804 69 234 3.5 7.8 0.00 0.01 0.01 83 1013.8
20260509143526 69 219 3.5 9.6 0.00 0.01 0.01 83 1013.8
20260509142805 69 236 4.3 9.6 0.00 0.01 0.01 83 1013.8
20260509142307 69 207 2.6 7.8 0.00 0.01 0.01 82 1013.8
20260509141801 69 254 2.6 7.0 0.00 0.01 0.01 82 1013.8
20260509141301 69 214 3.5 8.7 0.00 0.01 0.01 82 1013.8
20260509140801 69 215 3.5 8.7 0.00 0.01 0.01 82 1013.8
20260509140301 69 191 3.5 8.7 0.00 0.01 0.01 81 1013.9
20260509135801 69 237 2.6 7.0 0.00 0.01 0.01 80 1013.8
20260509135301 69 245 1.7 7.8 0.00 0.01 0.01 79 1013.8
20260509134800 69 287 2.6 7.8 0.00 0.01 0.01 79 1013.8
20260509134301 69 214 2.6 7.8 0.00 0.01 0.01 77 1013.9
20260509133800 69 250 2.6 8.7 0.00 0.01 0.01 77 1013.9
20260509133300 69 236 3.5 8.7 0.00 0.01 0.01 76 1013.9
20260509132801 69 230 2.6 7.0 0.00 0.01 0.01 76 1013.9
20260509132520 69 235 3.5 8.7 0.00 0.01 0.01 75 1013.9
20260509131801 69 270 3.5 8.7 0.00 0.01 0.01 74 1013.9
20260509131516 69 237 2.6 7.8 0.00 0.01 0.01 73 1013.9
20260509130801 69 208 3.5 8.7 0.00 0.01 0.01 74 1013.8
20260509130300 69 238 3.5 8.7 0.00 0.01 0.01 73 1013.9
20260509125801 70 242 3.5 8.7 0.00 0.01 0.01 71 1014.0
20260509125752 70 260 2.6 7.8 0.00 0.01 0.01 71 1014.0
20260509124754 70 252 1.7 6.1 0.00 0.01 0.01 72 1013.9
20260509124248 70 223 2.6 7.8 0.00 0.01 0.01 72 1013.9
20260509123741 70 201 3.5 7.8 0.00 0.01 0.01 72 1014.0
20260509123236 70 221 3.5 7.8 0.00 0.01 0.01 71 1014.1
20260509122730 71 219 2.6 7.0 0.00 0.01 0.01 70 1014.1
20260509122224 71 213 2.6 7.0 0.00 0.01 0.01 71 1014.1
20260509121717 71 227 1.7 5.2 0.00 0.01 0.01 71 1014.1
20260509121211 71 266 2.6 5.2 0.00 0.01 0.01 72 1014.0
20260509120704 70 207 2.6 6.1 0.00 0.01 0.01 73 1014.0
20260509120158 70 258 2.6 6.1 0.00 0.01 0.01 71 1014.0
20260509115651 71 229 1.7 6.1 0.00 0.01 0.01 70 1014.0
20260509115412 72 267 1.7 3.5 0.00 0.01 0.01 70 1014.0
20260509114640 70 254 1.7 5.2 0.00 0.01 0.01 73 1014.1
20260509114134 70 257 2.6 6.1 0.00 0.01 0.01 71 1014.1
20260509113847 69 233 3.5 6.1 0.00 0.02 0.01 73 1014.1
20260509113121 68 259 3.5 6.1 0.00 0.02 0.01 72 1014.2
20260509112616 68 246 2.6 5.2 0.00 0.04 0.01 73 1014.1
20260509112110 68 245 3.5 5.2 0.00 0.05 0.01 73 1014.1
20260509111604 68 229 2.6 4.3 0.00 0.06 0.01 73 1014.2
20260509111059 68 252 2.6 6.1 0.00 0.06 0.01 74 1014.2
20260509110551 68 275 3.5 7.0 0.00 0.06 0.01 74 1014.2
20260509110311 68 254 3.5 7.0 0.00 0.08 0.01 74 1014.3
20260509105805 68 297 3.5 6.1 0.00 0.09 0.01 74 1014.4
20260509105033 67 253 3.5 6.1 0.00 0.10 0.01 73 1014.4
20260509104750 68 245 3.5 6.1 0.00 0.11 0.01 72 1014.4
20260509104022 68 280 4.3 6.1 0.00 0.12 0.01 73 1014.4
20260509103520 68 275 3.5 6.1 0.00 0.13 0.01 72 1014.5
20260509103009 69 292 2.6 5.2 0.00 0.13 0.01 70 1014.6
20260509102504 69 284 1.7 4.3 0.00 0.13 0.01 68 1014.6
20260509101958 69 219 1.7 3.5 0.00 0.13 0.01 68 1014.6
20260509101709 69 255 1.7 4.3 0.00 0.14 0.01 69 1014.7
20260509100945 68 211 1.7 4.3 0.00 0.14 0.01 70 1014.8
20260509100440 67 221 2.6 4.3 0.00 0.14 0.01 71 1014.9
20260509100152 67 259 2.6 6.1 0.00 0.15 0.01 70 1014.9
20260509095429 67 262 2.6 6.1 0.00 0.15 0.01 69 1014.9
20260509094922 67 271 2.6 5.2 0.00 0.16 0.01 69 1015.0
20260509094416 67 215 2.6 5.2 0.00 0.16 0.01 73 1015.0
20260509093910 66 259 2.6 5.2 0.00 0.17 0.01 72 1015.1
20260509093404 66 278 2.6 5.2 0.00 0.17 0.01 74 1015.2
20260509092858 66 305 2.6 5.2 0.00 0.17 0.01 73 1015.1
20260509092618 66 323 2.6 5.2 0.00 0.17 0.01 75 1015.1
20260509091845 66 252 2.6 6.1 0.00 0.17 0.01 78 1015.1
20260509091340 65 234 2.6 6.1 0.00 0.17 0.01 78 1015.2
20260509091051 65 246 2.6 6.1 0.00 0.17 0.01 76 1015.2
20260509090328 65 302 2.6 6.1 0.00 0.17 0.01 77 1015.2
20260509085822 65 259 2.6 4.3 0.00 0.17 0.01 80 1015.2
20260509085315 65 280 2.6 4.3 0.00 0.17 0.01 79 1015.3
20260509084810 65 277 3.5 6.1 0.00 0.17 0.01 82 1015.3
20260509084304 64 295 3.5 6.1 0.00 0.17 0.01 80 1015.3
20260509084028 65 298 2.6 4.3 0.00 0.17 0.01 81 1015.3
20260509083251 65 271 2.6 4.3 0.00 0.17 0.01 83 1015.4
20260509082746 64 282 1.7 4.3 0.00 0.17 0.01 85 1015.4
20260509082240 64 265 1.7 3.5 0.00 0.17 0.01 87 1015.4
20260509081733 63 323 1.7 3.5 0.00 0.17 0.01 86 1015.4
20260509081228 63 284 1.7 3.5 0.00 0.17 0.01 87 1015.4
20260509080722 63 309 1.7 4.3 0.00 0.17 0.01 87 1015.5
20260509080216 63 297 1.7 4.3 0.00 0.17 0.01 88 1015.5
20260509075709 63 279 2.6 4.3 0.00 0.17 0.01 88 1015.6
20260509075425 63 281 2.6 4.3 0.00 0.17 0.01 88 1015.5
20260509074657 63 324 2.6 4.3 0.00 0.17 0.01 89 1015.5
20260509074411 62 299 0.9 4.3 0.00 0.17 0.01 89 1015.5
20260509073645 62 271 0.9 2.6 0.00 0.17 0.01 91 1015.5
20260509073140 61 35 1.7 2.6 0.00 0.17 0.01 91 1015.6
20260509072634 61 23 1.7 4.3 0.00 0.17 0.01 92 1015.5
20260509072128 61 278 2.6 4.3 0.00 0.17 0.01 91 1015.6
20260509071622 60 307 1.7 4.3 0.00 0.17 0.01 92 1015.7
20260509071116 61 307 1.7 4.3 0.00 0.17 0.01 92 1015.6
20260509070611 60 283 1.7 4.3 0.00 0.17 0.01 92 1015.7
20260509070326 60 277 2.6 4.3 0.00 0.17 0.01 93 1015.7